Storm Events Database

Event Details

Event Tornado
-- Scale EF1
-- Length 1.74 Miles
-- Width 880 Yards
State KENTUCKY
County/Area WHITLEY
WFO JKL
Report Source NWS Storm Survey
NCDC Data Source CSV
Begin Date 2011-04-04 16:03:00.0 EST-5
Begin Location 1WNW CLIO
Begin Lat/Lon 36.83/-84.22
End Date 2011-04-04 16:06:00.0 EST-5
End Location 1NE CLIO
End Lat/Lon 36.83/-84.19
Deaths Direct/Indirect 0/0 (fatality details below, when available...)
Injuries Direct/Indirect 0/0
Property Damage 200.00K
Crop Damage 0.00K
Episode Narrative Widespread wind damage occurred across eastern Kentucky as a squall line moved across the area.
Event Narrative The tornado touched down northwest of Williamsburg Kentucky along Brays Chapel Road and remained on the ground until just west of Airport Road. The tornado crossed highway 25W and Kentucky 204 while downing and uprooting many trees and causing significant damage to several barns and outbuildings along its path. Additional straight line wind damage occurred just east of where the tornado lifted from around airport road east over Interstate 75. The tornado's maximum wind speeds were estimated between 90 and 95 mph.


     ‚Äč



All events for this episode:

Location County/Zone St. Date Time T.Z. Type Mag Dth Inj PrD CrD
Totals: 0 2 774.00K 0.00K
ELSWICK PIKE CO. KY 04/04/2011 14:42 EST-5 Hail 1.00 in. 0 0 0.00K 0.00K
NANCY PULASKI CO. KY 04/04/2011 14:50 EST-5 Funnel Cloud 0 0 0.00K 0.00K
LETCHER (ZONE) LETCHER (ZONE) KY 04/04/2011 15:00 EST-5 Strong Wind 45 kts. EG 0 0 2.00K 0.00K
MOREHEAD ROWAN CO. KY 04/04/2011 15:13 EST-5 Thunderstorm Wind 52 kts. EG 0 0 8.00K 0.00K
DABNEY PULASKI CO. KY 04/04/2011 15:30 EST-5 Thunderstorm Wind 60 kts. EG 0 0 5.00K 0.00K
MONTICELLO WAYNE ARP WAYNE CO. KY 04/04/2011 15:30 EST-5 Thunderstorm Wind 52 kts. EG 0 0 20.00K 0.00K
FERGUSON PULASKI CO. KY 04/04/2011 15:35 EST-5 Thunderstorm Wind 60 kts. EG 0 0 5.00K 0.00K
PULASKI PULASKI CO. KY 04/04/2011 15:39 EST-5 Hail 1.00 in. 0 0 0.00K 0.00K
SCIENCE HILL PULASKI CO. KY 04/04/2011 15:40 EST-5 Thunderstorm Wind 52 kts. EG 0 0 8.00K 0.00K
SOMERSET PULASKI CO. KY 04/04/2011 15:40 EST-5 Thunderstorm Wind 61 kts. EG 0 0 0.00K 0.00K
STEARNS MCCREARY CO. KY 04/04/2011 15:45 EST-5 Thunderstorm Wind 57 kts. EG 0 0 10.00K 0.00K
EUBANK PULASKI CO. KY 04/04/2011 15:55 EST-5 Thunderstorm Wind 52 kts. EG 0 0 5.00K 0.00K
HARE LAUREL CO. KY 04/04/2011 15:55 EST-5 Thunderstorm Wind 52 kts. EG 0 0 20.00K 0.00K
KEAVY LAUREL CO. KY 04/04/2011 15:55 EST-5 Thunderstorm Wind 52 kts. EG 0 0 8.00K 0.00K
KRUPP WHITLEY CO. KY 04/04/2011 15:55 EST-5 Thunderstorm Wind 52 kts. EG 0 0 25.00K 0.00K
MARSHES SIDING MCCREARY CO. KY 04/04/2011 15:55 EST-5 Thunderstorm Wind 52 kts. EG 0 0 5.00K 0.00K
RYE WHITLEY CO. KY 04/04/2011 15:55 EST-5 Thunderstorm Wind 52 kts. EG 0 0 8.00K 0.00K
FABER WHITLEY CO. KY 04/04/2011 15:57 EST-5 Thunderstorm Wind 52 kts. EG 0 1 0.00K 0.00K
LONDON LAUREL CO. KY 04/04/2011 15:57 EST-5 Thunderstorm Wind 52 kts. EG 0 0 15.00K 0.00K
MOREHEAD ROWAN CO. KY 04/04/2011 15:58 EST-5 Thunderstorm Wind 52 kts. EG 0 0 8.00K 0.00K
WILLIAMSBURG WHITLEY CO. KY 04/04/2011 16:00 EST-5 Thunderstorm Wind 52 kts. EG 0 0 40.00K 0.00K
BARBOURVILLE KNOX CO. KY 04/04/2011 16:01 EST-5 Thunderstorm Wind 56 kts. EG 0 0 0.00K 0.00K
CORBIN WHITLEY CO. KY 04/04/2011 16:01 EST-5 Thunderstorm Wind 52 kts. EG 0 0 0.00K 0.00K
CORBIN WHITLEY CO. KY 04/04/2011 16:01 EST-5 Thunderstorm Wind 52 kts. EG 0 0 0.00K 0.00K
CORBIN WHITLEY CO. KY 04/04/2011 16:01 EST-5 Thunderstorm Wind 55 kts. EG 0 0 10.00K 0.00K
CORBIN LONDON ARPT LAUREL CO. KY 04/04/2011 16:01 EST-5 Thunderstorm Wind 50 kts. EG 0 0 2.00K 0.00K
EAST BERNSTADT LAUREL CO. KY 04/04/2011 16:01 EST-5 Thunderstorm Wind 52 kts. EG 0 0 0.00K 0.00K
LONDON LAUREL CO. KY 04/04/2011 16:01 EST-5 Thunderstorm Wind 55 kts. EG 0 0 0.00K 0.00K
LONDON LAUREL CO. KY 04/04/2011 16:01 EST-5 Thunderstorm Wind 51 kts. EG 0 0 0.00K 0.00K
LONDON LAUREL CO. KY 04/04/2011 16:01 EST-5 Thunderstorm Wind 50 kts. EG 0 0 5.00K 0.00K
LONDON LAUREL CO. KY 04/04/2011 16:01 EST-5 Thunderstorm Wind 52 kts. EG 0 0 0.00K 0.00K
NORTH CORBIN LAUREL CO. KY 04/04/2011 16:01 EST-5 Thunderstorm Wind 52 kts. EG 0 0 0.00K 0.00K
PINE GROVE LAUREL CO. KY 04/04/2011 16:01 EST-5 Thunderstorm Wind 52 kts. EG 0 0 0.00K 0.00K
LONDON LAUREL CO. KY 04/04/2011 16:02 EST-5 Thunderstorm Wind 52 kts. EG 0 0 3.00K 0.00K
WILLIAMSBURG WHITLEY CO. KY 04/04/2011 16:02 EST-5 Thunderstorm Wind 55 kts. EG 0 0 15.00K 0.00K
CLIO WHITLEY CO. KY 04/04/2011 16:03 EST-5 Tornado EF1 0 0 200.00K 0.00K
CORBIN WHITLEY CO. KY 04/04/2011 16:03 EST-5 Thunderstorm Wind 52 kts. EG 0 0 10.00K 0.00K
LILY LAUREL CO. KY 04/04/2011 16:03 EST-5 Thunderstorm Wind 52 kts. EG 0 0 20.00K 0.00K
WILLIAMSBURG ARPT WHITLEY CO. KY 04/04/2011 16:03 EST-5 Thunderstorm Wind 52 kts. EG 0 0 10.00K 0.00K
LONDON LAUREL CO. KY 04/04/2011 16:04 EST-5 Thunderstorm Wind 52 kts. EG 0 0 15.00K 0.00K
LONDON LAUREL CO. KY 04/04/2011 16:04 EST-5 Thunderstorm Wind 52 kts. EG 0 0 30.00K 0.00K
CORBIN LONDON ARPT LAUREL CO. KY 04/04/2011 16:05 EST-5 Thunderstorm Wind 55 kts. EG 0 0 8.00K 0.00K
LONDON LAUREL CO. KY 04/04/2011 16:05 EST-5 Thunderstorm Wind 50 kts. EG 0 0 0.00K 0.00K
ANNVILLE JACKSON CO. KY 04/04/2011 16:07 EST-5 Thunderstorm Wind 50 kts. EG 0 0 3.00K 0.00K
GRAY KNOX CO. KY 04/04/2011 16:10 EST-5 Thunderstorm Wind 60 kts. EG 0 0 5.00K 0.00K
BARBOURVILLE KNOX CO. KY 04/04/2011 16:13 EST-5 Thunderstorm Wind 60 kts. EG 0 0 25.00K 0.00K
LONDON LAUREL CO. KY 04/04/2011 16:15 EST-5 Funnel Cloud 0 0 0.00K 0.00K
MALAGA WOLFE CO. KY 04/04/2011 16:15 EST-5 Thunderstorm Wind 50 kts. EG 0 0 1.00K 0.00K
MANCHESTER CLAY CO. KY 04/04/2011 16:20 EST-5 Thunderstorm Wind 55 kts. EG 0 0 0.00K 0.00K
BARBOURVILLE KNOX CO. KY 04/04/2011 16:23 EST-5 Thunderstorm Wind 51 kts. EG 0 0 0.00K 0.00K
CORBIN WHITLEY CO. KY 04/04/2011 16:23 EST-5 Thunderstorm Wind 52 kts. EG 0 1 1.00K 0.00K
JACKSON BREATHITT CO. KY 04/04/2011 16:35 EST-5 Thunderstorm Wind 50 kts. EG 0 0 1.50K 0.00K
MOZELLE LESLIE CO. KY 04/04/2011 16:38 EST-5 Thunderstorm Wind 55 kts. EG 0 0 30.00K 0.00K
FLAT FORK MAGOFFIN CO. KY 04/04/2011 16:40 EST-5 Thunderstorm Wind 52 kts. EG 0 0 0.00K 0.00K
SALYERSVILLE MAGOFFIN CO. KY 04/04/2011 16:40 EST-5 Thunderstorm Wind 50 kts. EG 0 0 8.00K 0.00K
SALYERSVILLE MAGOFFIN CO. KY 04/04/2011 16:45 EST-5 Thunderstorm Wind 50 kts. EG 0 0 2.00K 0.00K
WATTS BREATHITT CO. KY 04/04/2011 16:45 EST-5 Thunderstorm Wind 52 kts. EG 0 0 5.00K 0.00K
CORBIN WHITLEY CO. KY 04/04/2011 16:52 EST-5 Thunderstorm Wind 55 kts. EG 0 0 10.00K 0.00K
PAINTSVILLE JOHNSON CO. KY 04/04/2011 17:00 EST-5 Funnel Cloud 0 0 0.00K 0.00K
HINDMAN KNOTT CO. KY 04/04/2011 17:04 EST-5 Thunderstorm Wind 60 kts. EG 0 0 0.00K 0.00K
DANA FLOYD CO. KY 04/04/2011 17:15 EST-5 Thunderstorm Wind 60 kts. EG 0 0 10.00K 0.00K
WALES PIKE CO. KY 04/04/2011 17:15 EST-5 Thunderstorm Wind 50 kts. EG 0 0 1.00K 0.00K
DOBSON JOHNSON CO. KY 04/04/2011 17:18 EST-5 Thunderstorm Wind 52 kts. EG 0 0 25.00K 0.00K
COAL RUN PIKE CO. KY 04/04/2011 17:20 EST-5 Thunderstorm Wind 60 kts. EG 0 0 10.00K 0.00K
BEAVER FLOYD CO. KY 04/04/2011 17:21 EST-5 Tornado EF1 0 0 10.00K 0.00K
COAL RUN PIKE CO. KY 04/04/2011 17:23 EST-5 Thunderstorm Wind 55 kts. EG 0 0 0.00K 0.00K
PIKEVILLE PIKE CO. KY 04/04/2011 17:23 EST-5 Thunderstorm Wind 50 kts. EG 0 0 1.50K 0.00K
COAL RUN PIKE CO. KY 04/04/2011 17:25 EST-5 Thunderstorm Wind 55 kts. EG 0 0 15.00K 0.00K
COAL RUN PIKE CO. KY 04/04/2011 17:25 EST-5 Thunderstorm Wind 52 kts. EG 0 0 2.00K 0.00K
PIKEVILLE PIKE CO. KY 04/04/2011 17:25 EST-5 Thunderstorm Wind 55 kts. EG 0 0 5.00K 0.00K
PIKEVILLE PIKE CO. KY 04/04/2011 17:25 EST-5 Thunderstorm Wind 60 kts. EG 0 0 25.00K 0.00K
PIKEVILLE PIKE CO. KY 04/04/2011 17:25 EST-5 Thunderstorm Wind 55 kts. EG 0 0 20.00K 0.00K
SHELBIANA PIKE CO. KY 04/04/2011 17:25 EST-5 Thunderstorm Wind 55 kts. EG 0 0 20.00K 0.00K
VIRGIE PIKE CO. KY 04/04/2011 17:25 EST-5 Thunderstorm Wind 55 kts. EG 0 0 10.00K 0.00K
ZEBULON PIKE CO. KY 04/04/2011 17:25 EST-5 Thunderstorm Wind 52 kts. EG 0 0 3.00K 0.00K
RACCOON PIKE CO. KY 04/04/2011 17:30 EST-5 Thunderstorm Wind 52 kts. EG 0 0 2.00K 0.00K
META PIKE CO. KY 04/04/2011 17:35 EST-5 Thunderstorm Wind 61 kts. EG 0 0 0.00K 0.00K
MC ANDREWS PIKE CO. KY 04/04/2011 17:38 EST-5 Thunderstorm Wind 52 kts. EG 0 0 1.00K 0.00K
BELFRY PIKE CO. KY 04/04/2011 17:45 EST-5 Thunderstorm Wind 50 kts. EG 0 0 2.00K 0.00K
Totals: 0 2 774.00K 0.00K